[keps] orb12110.amsat
Ray Hoad
ray.hoad at mypbmail.com
Thu Apr 19 19:54:39 PDT 2012
SB KEPS @ AMSAT $ORB12110.O
Orbital Elements 12110.OSCAR
HR AMSAT ORBITAL ELEMENTS FOR OSCAR SATELLITES
FROM WA5QGD FORT WORTH,TX April 19, 2012
Send SUBSCRIBE KEPS/UNSUBSCRIBE KEPS to majordomo at amsat.org only
BID: ORB12110.O
TO ALL RADIO AMATEURS BT
Satellite: AO-07
Catalog number: 07530
Epoch time: 12109.61042172
Element set: 0360
Inclination: 101.4020 deg
RA of node: 109.1246 deg
Eccentricity: 0.0012101
Arg of perigee: 040.0232 deg
Mean anomaly: 320.1724 deg
Mean motion: 12.53588692 rev/day
Decay rate: -2.7e-07 rev/day^2
Epoch rev: 71258
Checksum: 226
Satellite: FO-29
Catalog number: 24278
Epoch time: 12109.95124954
Element set: 0855
Inclination: 098.5812 deg
RA of node: 218.3679 deg
Eccentricity: 0.0350736
Arg of perigee: 182.5348 deg
Mean anomaly: 177.4022 deg
Mean motion: 13.52981348 rev/day
Decay rate: -1.3e-07 rev/day^2
Epoch rev: 77394
Checksum: 341
Satellite: SO-33
Catalog number: 25509
Epoch time: 12109.80804481
Element set: 211
Inclination: 031.4334 deg
RA of node: 309.7029 deg
Eccentricity: 0.0352162
Arg of perigee: 043.7266 deg
Mean anomaly: 319.0672 deg
Mean motion: 14.28700483 rev/day
Decay rate: 3.22e-06 rev/day^2
Epoch rev: 70415
Checksum: 271
Satellite: RS-22
Catalog number: 27939
Epoch time: 12110.62920926
Element set: 279
Inclination: 097.8180 deg
RA of node: 314.4378 deg
Eccentricity: 0.0014599
Arg of perigee: 091.3100 deg
Mean anomaly: 268.9778 deg
Mean motion: 14.63971900 rev/day
Decay rate: 5.26e-06 rev/day^2
Epoch rev: 45731
Checksum: 328
Satellite: VO-52
Catalog number: 28650
Epoch time: 12109.87788874
Element set: 0081
Inclination: 097.6032 deg
RA of node: 143.7237 deg
Eccentricity: 0.0025474
Arg of perigee: 234.3585 deg
Mean anomaly: 125.5246 deg
Mean motion: 14.82824431 rev/day
Decay rate: 1.225e-05 rev/day^2
Epoch rev: 37618
Checksum: 319
Satellite: HO-68
Catalog number: 36122
Epoch time: 12110.38570161
Element set: 390
Inclination: 100.3666 deg
RA of node: 170.9043 deg
Eccentricity: 0.0007166
Arg of perigee: 242.4823 deg
Mean anomaly: 117.5558 deg
Mean motion: 13.16294509 rev/day
Decay rate: -4.4e-07 rev/day^2
Epoch rev: 11265
Checksum: 274
/EX
SB KEPS @ AMSAT $ORB12110.D
Orbital Elements 12110.MICROS
HR AMSAT ORBITAL ELEMENTS FOR THE MICROSATS
FROM WA5QGD FORT WORTH,TX April 19, 2012
Send SUBSCRIBE KEPS/UNSUBSCRIBE KEPS to majordomo at amsat.org only
BID: ORB12110.D
TO ALL RADIO AMATEURS BT
Satellite: UO-11
Catalog number: 14781
Epoch time: 12109.91269221
Element set: 0857
Inclination: 097.9607 deg
RA of node: 169.9373 deg
Eccentricity: 0.0008187
Arg of perigee: 220.6057 deg
Mean anomaly: 139.4548 deg
Mean motion: 14.80383281 rev/day
Decay rate: 2.76e-06 rev/day^2
Epoch rev: 51116
Checksum: 321
Satellite: AO-16
Catalog number: 20439
Epoch time: 12110.81574390
Element set: 446
Inclination: 098.4251 deg
RA of node: 055.8374 deg
Eccentricity: 0.0010894
Arg of perigee: 337.7500 deg
Mean anomaly: 022.3210 deg
Mean motion: 14.32038695 rev/day
Decay rate: 1.35e-06 rev/day^2
Epoch rev: 16164
Checksum: 277
Satellite: LO-19
Catalog number: 20442
Epoch time: 12109.86957818
Element set: 0384
Inclination: 098.3902 deg
RA of node: 058.1346 deg
Eccentricity: 0.0011580
Arg of perigee: 331.7114 deg
Mean anomaly: 028.3433 deg
Mean motion: 14.32257554 rev/day
Decay rate: 3.4e-07 rev/day^2
Epoch rev: 16169
Checksum: 297
Satellite: AO-27
Catalog number: 22825
Epoch time: 12109.81883923
Element set: 0083
Inclination: 098.5703 deg
RA of node: 053.5721 deg
Eccentricity: 0.0009354
Arg of perigee: 093.6059 deg
Mean anomaly: 266.6203 deg
Mean motion: 14.29447475 rev/day
Decay rate: 8.2e-07 rev/day^2
Epoch rev: 96799
Checksum: 335
Satellite: IO-26
Catalog number: 22826
Epoch time: 12109.97103273
Element set: 0833
Inclination: 098.5648 deg
RA of node: 054.1071 deg
Eccentricity: 0.0009865
Arg of perigee: 086.4957 deg
Mean anomaly: 273.7351 deg
Mean motion: 14.29719892 rev/day
Decay rate: 1.06e-06 rev/day^2
Epoch rev: 96814
Checksum: 337
Satellite: GO-32
Catalog number: 25397
Epoch time: 12110.41535115
Element set: 754
Inclination: 098.3575 deg
RA of node: 092.0316 deg
Eccentricity: 0.0002210
Arg of perigee: 091.2731 deg
Mean anomaly: 268.8718 deg
Mean motion: 14.23268739 rev/day
Decay rate: 1.29e-06 rev/day^2
Epoch rev: 71566
Checksum: 295
Satellite: NO-44
Catalog number: 26931
Epoch time: 12110.42215376
Element set: 20
Inclination: 067.0511 deg
RA of node: 271.7947 deg
Eccentricity: 0.0007181
Arg of perigee: 272.4027 deg
Mean anomaly: 087.6258 deg
Mean motion: 14.29782634 rev/day
Decay rate: -8.0e-08 rev/day^2
Epoch rev: 55084
Checksum: 289
Satellite: SO-50
Catalog number: 27607
Epoch time: 12109.53453852
Element set: 739
Inclination: 064.5568 deg
RA of node: 116.3533 deg
Eccentricity: 0.0084764
Arg of perigee: 260.4080 deg
Mean anomaly: 098.7441 deg
Mean motion: 14.72310573 rev/day
Decay rate: 5.56e-06 rev/day^2
Epoch rev: 50118
Checksum: 306
Satellite: CO-55
Catalog number: 27844
Epoch time: 12109.56440754
Element set: 354
Inclination: 098.7042 deg
RA of node: 118.8099 deg
Eccentricity: 0.0010555
Arg of perigee: 037.5865 deg
Mean anomaly: 322.6066 deg
Mean motion: 14.20995006 rev/day
Decay rate: 2.08e-06 rev/day^2
Epoch rev: 45642
Checksum: 313
Satellite: CO-57
Catalog number: 27848
Epoch time: 12109.55769599
Element set: 305
Inclination: 098.7119 deg
RA of node: 118.1092 deg
Eccentricity: 0.0010633
Arg of perigee: 043.5157 deg
Mean anomaly: 316.6859 deg
Mean motion: 14.20750099 rev/day
Decay rate: 1.74e-06 rev/day^2
Epoch rev: 45636
Checksum: 333
Satellite: AO-51
Catalog number: 28375
Epoch time: 12110.40350743
Element set: 244
Inclination: 098.1415 deg
RA of node: 078.4338 deg
Eccentricity: 0.0082570
Arg of perigee: 218.9219 deg
Mean anomaly: 140.6003 deg
Mean motion: 14.40927718 rev/day
Decay rate: 1.75e-06 rev/day^2
Epoch rev: 41030
Checksum: 275
Satellite: CP3
Catalog number: 31129
Epoch time: 12110.48070652
Element set: 144
Inclination: 097.8806 deg
RA of node: 121.7127 deg
Eccentricity: 0.0099701
Arg of perigee: 306.2668 deg
Mean anomaly: 052.9363 deg
Mean motion: 14.52995025 rev/day
Decay rate: 6.54e-06 rev/day^2
Epoch rev: 26545
Checksum: 297
Satellite: CO-65
Catalog number: 32785
Epoch time: 12109.19093050
Element set: 0285
Inclination: 097.8057 deg
RA of node: 171.6513 deg
Eccentricity: 0.0013539
Arg of perigee: 257.2832 deg
Mean anomaly: 102.6867 deg
Mean motion: 14.82830206 rev/day
Decay rate: 6.79e-06 rev/day^2
Epoch rev: 21487
Checksum: 319
Satellite: PRISM
Catalog number: 33493
Epoch time: 12110.58981340
Element set: 621
Inclination: 098.1621 deg
RA of node: 249.7985 deg
Eccentricity: 0.0020021
Arg of perigee: 125.3434 deg
Mean anomaly: 234.9656 deg
Mean motion: 14.83567152 rev/day
Decay rate: 2.810e-05 rev/day^2
Epoch rev: 17506
Checksum: 287
Satellite: SOHLA-1
Catalog number: 33496
Epoch time: 12110.90450310
Element set: 705
Inclination: 098.0983 deg
RA of node: 223.0468 deg
Eccentricity: 0.0005875
Arg of perigee: 219.6346 deg
Mean anomaly: 140.4431 deg
Mean motion: 14.69922680 rev/day
Decay rate: 3.76e-06 rev/day^2
Epoch rev: 17368
Checksum: 298
Satellite: SO-67
Catalog number: 35870
Epoch time: 12110.54185906
Element set: 879
Inclination: 097.2392 deg
RA of node: 148.3535 deg
Eccentricity: 0.0003270
Arg of perigee: 051.8538 deg
Mean anomaly: 099.1245 deg
Mean motion: 15.23306610 rev/day
Decay rate: 3.858e-05 rev/day^2
Epoch rev: 14368
Checksum: 318
Satellite: TISAT-1
Catalog number: 36799
Epoch time: 12110.59508675
Element set: 897
Inclination: 098.0648 deg
RA of node: 186.5028 deg
Eccentricity: 0.0014958
Arg of perigee: 008.4069 deg
Mean anomaly: 351.7402 deg
Mean motion: 14.81740985 rev/day
Decay rate: 1.570e-05 rev/day^2
Epoch rev: 9581
Checksum: 342
Satellite: STUDSAT
Catalog number: 36801
Epoch time: 12109.93997813
Element set: 0378
Inclination: 098.0723 deg
RA of node: 186.3100 deg
Eccentricity: 0.0012990
Arg of perigee: 356.5669 deg
Mean anomaly: 003.5453 deg
Mean motion: 14.83705020 rev/day
Decay rate: 4.140e-05 rev/day^2
Epoch rev: 09573
Checksum: 298
Satellite: FO-69
Catalog number: 37227
Epoch time: 12105.44363759
Element set: 0152
Inclination: 071.9681 deg
RA of node: 092.6102 deg
Eccentricity: 0.0015230
Arg of perigee: 078.5207 deg
Mean anomaly: 281.7702 deg
Mean motion: 14.76998202 rev/day
Decay rate: 4.58e-06 rev/day^2
Epoch rev: 02668
Checksum: 310
Satellite: FO-70
Catalog number: 37380
Epoch time: 12105.43852282
Element set: 0160
Inclination: 071.9714 deg
RA of node: 093.1005 deg
Eccentricity: 0.0015742
Arg of perigee: 075.4484 deg
Mean anomaly: 284.8453 deg
Mean motion: 14.76752860 rev/day
Decay rate: 4.13e-06 rev/day^2
Epoch rev: 02657
Checksum: 294
Satellite: ALMASAT-1
Catalog number: 38078
Epoch time: 12110.45470852
Element set: 136
Inclination: 069.4884 deg
RA of node: 090.1278 deg
Eccentricity: 0.0767796
Arg of perigee: 322.0766 deg
Mean anomaly: 032.8592 deg
Mean motion: 14.07177861 rev/day
Decay rate: 2.9739e-04 rev/day^2
Epoch rev: 928
Checksum: 339
Satellite: XATCOBEO
Catalog number: 38082
Epoch time: 12110.34550888
Element set: 172
Inclination: 069.4879 deg
RA of node: 089.7797 deg
Eccentricity: 0.0757068
Arg of perigee: 321.8220 deg
Mean anomaly: 033.1679 deg
Mean motion: 14.11444132 rev/day
Decay rate: 6.8859e-04 rev/day^2
Epoch rev: 927
Checksum: 333
/EX
SB KEPS @ AMSAT $ORB12110.W
Orbital Elements 12110.WEATHER
HR AMSAT ORBITAL ELEMENTS FOR WEATHER SATELLITES
FROM WA5QGD FORT WORTH,TX April 19, 2012
Send SUBSCRIBE KEPS/UNSUBSCRIBE KEPS to majordomo at amsat.org only
BID: ORB12110.W
TO ALL RADIO AMATEURS BT
Satellite: NOAA-10
Catalog number: 16969
Epoch time: 12109.58380208
Element set: 0890
Inclination: 098.5865 deg
RA of node: 139.6842 deg
Eccentricity: 0.0013028
Arg of perigee: 051.6862 deg
Mean anomaly: 308.5497 deg
Mean motion: 14.27542020 rev/day
Decay rate: 6.6e-07 rev/day^2
Epoch rev: 33136
Checksum: 314
